UAL996 KEUG-KSFO

Flight info

Callsign UAL996
Flight time 1h 14m
Altitude 35000
Route RBG MLBEC STLER4
Aircraft B738/M-SDE2E3FGHIRWXY/LB1

Departure

Time 2026-04-20 20:42
Airport Eugene Airport (KEUG)

Arrival

Time 2026-04-20 21:56
Airport San Francisco International Airport (KSFO)
Time Latitude Longitude Altitude Speed Heading
2026-04-20 20:14 44.11949 -123.21446 371 ft 0 kts 75°
2026-04-20 20:33 44.11948 -123.21453 371 ft 2 kts 75°
2026-04-20 20:33 44.11944 -123.21473 371 ft 2 kts 75°
2026-04-20 20:33 44.11940 -123.21493 371 ft 2 kts 75°
2026-04-20 20:33 44.11937 -123.21513 371 ft 2 kts 75°
2026-04-20 20:34 44.11933 -123.21532 371 ft 2 kts 75°
2026-04-20 20:34 44.11929 -123.21551 371 ft 1 kts 75°
2026-04-20 20:34 44.11926 -123.21567 372 ft 2 kts 65°
2026-04-20 20:34 44.11916 -123.21585 372 ft 2 kts 39°
2026-04-20 20:35 44.11903 -123.21595 372 ft 2 kts 16°
2026-04-20 20:35 44.11887 -123.21598 372 ft 1 kts 353°
2026-04-20 20:35 44.11881 -123.21596 372 ft 1 kts 345°
2026-04-20 20:35 44.11879 -123.21595 372 ft 0 kts 347°
2026-04-20 20:37 44.11895 -123.21604 372 ft 8 kts 330°
2026-04-20 20:37 44.11987 -123.21696 370 ft 20 kts 341°
2026-04-20 20:37 44.12121 -123.21705 370 ft 19 kts
2026-04-20 20:38 44.12245 -123.21703 370 ft 18 kts 360°
2026-04-20 20:38 44.12368 -123.21706 369 ft 17 kts 359°
2026-04-20 20:38 44.12492 -123.21711 367 ft 18 kts 358°
2026-04-20 20:38 44.12619 -123.21714 367 ft 18 kts 359°
2026-04-20 20:39 44.12748 -123.21714 365 ft 18 kts
2026-04-20 20:39 44.12877 -123.21714 363 ft 18 kts
2026-04-20 20:39 44.13009 -123.21716 363 ft 22 kts 359°
2026-04-20 20:39 44.13164 -123.21718 363 ft 22 kts
2026-04-20 20:40 44.13320 -123.21720 361 ft 22 kts
2026-04-20 20:40 44.13466 -123.21721 360 ft 13 kts 358°
2026-04-20 20:40 44.13534 -123.21775 360 ft 11 kts 280°
2026-04-20 20:40 44.13537 -123.21879 360 ft 6 kts 270°
2026-04-20 20:41 44.13518 -123.21913 360 ft 4 kts 194°
2026-04-20 20:41 44.13485 -123.21915 360 ft 5 kts 180°
2026-04-20 20:41 44.13311 -123.21912 361 ft 62 kts 179°
2026-04-20 20:41 44.12624 -123.21904 367 ft 139 kts 179°
2026-04-20 20:42 44.11510 -123.21892 492 ft 190 kts 179°
2026-04-20 20:42 44.10208 -123.21894 1179 ft 210 kts 179°
2026-04-20 20:42 44.08743 -123.21848 1774 ft 234 kts 178°
2026-04-20 20:42 44.07137 -123.21770 2363 ft 253 kts 178°
2026-04-20 20:43 44.05529 -123.21697 3249 ft 259 kts 179°
2026-04-20 20:43 44.03855 -123.21636 4097 ft 265 kts 178°
2026-04-20 20:43 44.02266 -123.21695 5191 ft 260 kts 184°
2026-04-20 20:43 44.00676 -123.21974 6207 ft 258 kts 187°
2026-04-20 20:44 43.99100 -123.22311 7081 ft 260 kts 186°
2026-04-20 20:44 43.97526 -123.22626 7950 ft 261 kts 185°
2026-04-20 20:44 43.95902 -123.22913 8827 ft 263 kts 184°
2026-04-20 20:44 43.94259 -123.23183 9717 ft 263 kts 184°
2026-04-20 20:45 43.92587 -123.23451 10504 ft 267 kts 184°
2026-04-20 20:45 43.90822 -123.23732 11013 ft 282 kts 185°
2026-04-20 20:45 43.88986 -123.24025 11611 ft 293 kts 185°
2026-04-20 20:45 43.87126 -123.24320 12149 ft 305 kts 185°
2026-04-20 20:46 43.85212 -123.24625 12679 ft 317 kts 186°
2026-04-20 20:46 43.83191 -123.24948 13539 ft 317 kts 185°
2026-04-20 20:46 43.81139 -123.25281 14411 ft 318 kts 186°
2026-04-20 20:46 43.79070 -123.25614 15282 ft 318 kts 185°
2026-04-20 20:47 43.77000 -123.25945 16004 ft 323 kts 185°
2026-04-20 20:47 43.74830 -123.26290 16695 ft 328 kts 185°
2026-04-20 20:47 43.72648 -123.26633 17446 ft 330 kts 184°
2026-04-20 20:47 43.70409 -123.26985 18188 ft 334 kts 184°
2026-04-20 20:48 43.68183 -123.27331 18935 ft 336 kts 184°
2026-04-20 20:48 43.65952 -123.27682 19674 ft 338 kts 184°
2026-04-20 20:48 43.63641 -123.28047 20479 ft 338 kts 185°
2026-04-20 20:48 43.61332 -123.28412 21032 ft 343 kts 185°
2026-04-20 20:49 43.59031 -123.28779 21689 ft 345 kts 185°
2026-04-20 20:49 43.56685 -123.29152 22321 ft 347 kts 186°
2026-04-20 20:49 43.54386 -123.29514 22935 ft 349 kts 185°
2026-04-20 20:49 43.52033 -123.29887 23460 ft 353 kts 186°
2026-04-20 20:50 43.49602 -123.30267 24133 ft 353 kts 186°
2026-04-20 20:50 43.47139 -123.30650 24620 ft 357 kts 186°
2026-04-20 20:50 43.44688 -123.31039 25169 ft 358 kts 186°
2026-04-20 20:50 43.42220 -123.31434 25755 ft 358 kts 187°
2026-04-20 20:51 43.39758 -123.31828 26309 ft 358 kts 187°
2026-04-20 20:51 43.37289 -123.32223 26779 ft 360 kts 187°
2026-04-20 20:51 43.34811 -123.32618 27322 ft 360 kts 188°
2026-04-20 20:51 43.32336 -123.33009 27754 ft 363 kts 188°
2026-04-20 20:52 43.29837 -123.33408 28244 ft 364 kts 189°
2026-04-20 20:52 43.27269 -123.33820 28619 ft 368 kts 188°
2026-04-20 20:52 43.24715 -123.34225 29090 ft 368 kts 188°
2026-04-20 20:52 43.22141 -123.34626 29497 ft 370 kts 189°
2026-04-20 20:53 43.19596 -123.34982 29855 ft 374 kts 188°
2026-04-20 20:53 43.16989 -123.35121 30276 ft 377 kts 183°
2026-04-20 20:53 43.14316 -123.35000 30659 ft 381 kts 180°
2026-04-20 20:53 43.11609 -123.34745 31020 ft 385 kts 180°
2026-04-20 20:54 43.08946 -123.34439 31441 ft 385 kts 179°
2026-04-20 20:54 43.06268 -123.34123 31975 ft 384 kts 179°
2026-04-20 20:54 43.03596 -123.33827 32610 ft 379 kts 179°
2026-04-20 20:54 43.00980 -123.33547 33144 ft 377 kts 179°
2026-04-20 20:55 42.98374 -123.33285 33735 ft 373 kts 179°
2026-04-20 20:55 42.95795 -123.33034 34294 ft 370 kts 180°
2026-04-20 20:55 42.93229 -123.32789 34490 ft 375 kts 179°
2026-04-20 20:55 42.90552 -123.32539 34645 ft 381 kts 180°
2026-04-20 20:56 42.87921 -123.32291 34845 ft 384 kts 179°
2026-04-20 20:56 42.85285 -123.32040 34847 ft 383 kts 179°
2026-04-20 20:56 42.79999 -123.31520 34856 ft 375 kts 179°
2026-04-20 20:57 42.74869 -123.31024 34862 ft 377 kts 179°
2026-04-20 20:57 42.69644 -123.30525 34863 ft 376 kts 179°
2026-04-20 20:58 42.64449 -123.30020 34875 ft 376 kts 179°
2026-04-20 20:58 42.59145 -123.29515 34876 ft 377 kts 180°
2026-04-20 20:59 42.54037 -123.29025 34879 ft 375 kts 179°
2026-04-20 20:59 42.48812 -123.28522 34885 ft 376 kts 179°
2026-04-20 21:00 42.43573 -123.28027 34883 ft 375 kts 179°
2026-04-20 21:00 42.38345 -123.27542 34883 ft 372 kts 179°
2026-04-20 21:01 42.33102 -123.27050 34888 ft 375 kts 179°
2026-04-20 21:01 42.27889 -123.26545 34886 ft 375 kts 179°
2026-04-20 21:02 42.22643 -123.26047 34883 ft 376 kts 179°
2026-04-20 21:02 42.17471 -123.25552 34890 ft 373 kts 179°
2026-04-20 21:03 42.12378 -123.25069 34894 ft 376 kts 179°
2026-04-20 21:03 42.07228 -123.24585 34888 ft 374 kts 179°
2026-04-20 21:04 42.02081 -123.24092 34888 ft 374 kts 179°
2026-04-20 21:04 41.96932 -123.23605 34889 ft 376 kts 179°
2026-04-20 21:05 41.91777 -123.23124 34888 ft 374 kts 179°
2026-04-20 21:05 41.86518 -123.22628 34888 ft 376 kts 179°
2026-04-20 21:06 41.81257 -123.22140 34903 ft 374 kts 179°
2026-04-20 21:06 41.76013 -123.21655 34897 ft 374 kts 179°
2026-04-20 21:07 41.70786 -123.21164 34906 ft 374 kts 178°
2026-04-20 21:07 41.65736 -123.20695 34907 ft 374 kts 179°
2026-04-20 21:08 41.60563 -123.20225 34919 ft 374 kts 179°
2026-04-20 21:08 41.55320 -123.19738 34914 ft 375 kts 179°
2026-04-20 21:09 41.50013 -123.19242 34922 ft 375 kts 179°
2026-04-20 21:09 41.44777 -123.18764 34931 ft 374 kts 179°
2026-04-20 21:10 41.39577 -123.18288 34950 ft 376 kts 179°
2026-04-20 21:10 41.34338 -123.17801 34937 ft 372 kts 179°
2026-04-20 21:11 41.29113 -123.17314 34949 ft 373 kts 179°
2026-04-20 21:11 41.23805 -123.16840 34973 ft 374 kts 179°
2026-04-20 21:12 41.18660 -123.16394 34965 ft 373 kts 179°
2026-04-20 21:12 41.13462 -123.15905 34946 ft 372 kts 179°
2026-04-20 21:13 41.08331 -123.15420 34956 ft 371 kts 179°
2026-04-20 21:13 41.03066 -123.14915 34969 ft 374 kts 178°
2026-04-20 21:14 40.97950 -123.14457 34957 ft 371 kts 180°
2026-04-20 21:14 40.92874 -123.14038 34977 ft 372 kts 180°
2026-04-20 21:15 40.87655 -123.13570 34970 ft 373 kts 179°
2026-04-20 21:15 40.82471 -123.13071 34983 ft 372 kts 179°
2026-04-20 21:16 40.77282 -123.12597 34993 ft 373 kts 179°
2026-04-20 21:16 40.72134 -123.12136 34986 ft 373 kts 179°
2026-04-20 21:17 40.66943 -123.11668 34986 ft 374 kts 179°
2026-04-20 21:17 40.61655 -123.11181 34984 ft 375 kts 179°
2026-04-20 21:18 40.56347 -123.10701 34988 ft 374 kts 179°
2026-04-20 21:18 40.51101 -123.10245 34973 ft 373 kts 179°
2026-04-20 21:19 40.45909 -123.09779 34961 ft 374 kts 179°
2026-04-20 21:20 40.38177 -123.09087 34943 ft 370 kts 179°
2026-04-20 21:20 40.32983 -123.08606 34939 ft 372 kts 179°
2026-04-20 21:21 40.27787 -123.08148 34936 ft 374 kts 179°
2026-04-20 21:21 40.22527 -123.07688 34920 ft 371 kts 179°
2026-04-20 21:22 40.17337 -123.07237 34918 ft 372 kts 179°
2026-04-20 21:22 40.12141 -123.06754 34930 ft 371 kts 179°
2026-04-20 21:23 40.06957 -123.06296 34924 ft 372 kts 179°
2026-04-20 21:23 40.01726 -123.05839 34918 ft 370 kts 179°
2026-04-20 21:24 39.96549 -123.05389 34920 ft 372 kts 179°
2026-04-20 21:24 39.91327 -123.04925 34921 ft 373 kts 179°
2026-04-20 21:25 39.86114 -123.04468 34930 ft 371 kts 179°
2026-04-20 21:25 39.80885 -123.04007 34919 ft 373 kts 179°
2026-04-20 21:26 39.75570 -123.03530 34922 ft 372 kts 179°
2026-04-20 21:26 39.70338 -123.03061 34919 ft 374 kts 178°
2026-04-20 21:26 39.67733 -123.02826 34688 ft 378 kts 179°
2026-04-20 21:27 39.65088 -123.02595 34402 ft 377 kts 179°
2026-04-20 21:27 39.62404 -123.02364 34106 ft 373 kts 179°
2026-04-20 21:27 39.59821 -123.02143 33824 ft 372 kts 179°
2026-04-20 21:27 39.57218 -123.01923 33555 ft 372 kts 179°
2026-04-20 21:28 39.54634 -123.01704 33297 ft 374 kts 179°
2026-04-20 21:28 39.52025 -123.01477 33037 ft 377 kts 178°
2026-04-20 21:28 39.49466 -123.01252 32781 ft 378 kts 179°
2026-04-20 21:28 39.46854 -123.01023 32521 ft 377 kts 179°
2026-04-20 21:29 39.44288 -123.00801 32265 ft 376 kts 179°
2026-04-20 21:29 39.41698 -123.00574 32007 ft 377 kts 179°
2026-04-20 21:29 39.39081 -123.00347 31748 ft 379 kts 179°
2026-04-20 21:29 39.36465 -123.00125 31489 ft 381 kts 179°
2026-04-20 21:30 39.33817 -122.99896 31230 ft 383 kts 179°
2026-04-20 21:30 39.31142 -122.99658 30969 ft 383 kts 179°
2026-04-20 21:30 39.28497 -122.99426 30710 ft 382 kts 179°
2026-04-20 21:30 39.25880 -122.99203 30454 ft 382 kts 179°
2026-04-20 21:31 39.23207 -122.98978 30192 ft 384 kts 179°
2026-04-20 21:31 39.20550 -122.98762 29935 ft 385 kts 179°
2026-04-20 21:31 39.17883 -122.98541 29675 ft 383 kts 180°
2026-04-20 21:31 39.15242 -122.98314 29420 ft 381 kts 180°
2026-04-20 21:32 39.12608 -122.98088 29162 ft 379 kts 179°
2026-04-20 21:32 39.09925 -122.97852 28898 ft 379 kts 180°
2026-04-20 21:32 39.07283 -122.97617 28640 ft 379 kts 180°
2026-04-20 21:32 39.04672 -122.97392 28381 ft 376 kts 179°
2026-04-20 21:33 39.02095 -122.97166 28125 ft 373 kts 179°
2026-04-20 21:33 38.99517 -122.96941 27914 ft 371 kts 179°
2026-04-20 21:33 38.96963 -122.96719 27899 ft 370 kts 180°
2026-04-20 21:33 38.94402 -122.96498 27898 ft 371 kts 180°
2026-04-20 21:34 38.91826 -122.96278 27897 ft 375 kts 179°
2026-04-20 21:34 38.89259 -122.96054 27899 ft 374 kts 179°
2026-04-20 21:34 38.86702 -122.95678 27900 ft 375 kts 175°
2026-04-20 21:34 38.84167 -122.95066 27722 ft 381 kts 172°
2026-04-20 21:35 38.81632 -122.94318 27469 ft 381 kts 172°
2026-04-20 21:35 38.79095 -122.93521 27216 ft 375 kts 171°
2026-04-20 21:35 38.76586 -122.92735 26961 ft 372 kts 171°
2026-04-20 21:35 38.74117 -122.91972 26693 ft 373 kts 172°
2026-04-20 21:36 38.71625 -122.91215 26304 ft 367 kts 172°
2026-04-20 21:36 38.69192 -122.90485 25315 ft 367 kts 172°
2026-04-20 21:36 38.66716 -122.89758 24435 ft 367 kts 173°
2026-04-20 21:36 38.64348 -122.89059 24154 ft 356 kts 173°
2026-04-20 21:37 38.62075 -122.88383 24003 ft 342 kts 173°
2026-04-20 21:37 38.59885 -122.87730 23795 ft 333 kts 173°
2026-04-20 21:37 38.57719 -122.87091 23563 ft 331 kts 173°
2026-04-20 21:37 38.55497 -122.86442 23324 ft 333 kts 173°
2026-04-20 21:38 38.53295 -122.85799 23086 ft 335 kts 174°
2026-04-20 21:38 38.51034 -122.85143 22863 ft 336 kts 173°
2026-04-20 21:38 38.48786 -122.84480 22654 ft 329 kts 173°
2026-04-20 21:38 38.46600 -122.83826 22346 ft 322 kts 173°
2026-04-20 21:39 38.44457 -122.83193 21662 ft 327 kts 172°
2026-04-20 21:39 38.42350 -122.82577 21174 ft 324 kts 172°
2026-04-20 21:39 38.40245 -122.81959 20780 ft 319 kts 172°
2026-04-20 21:39 38.38094 -122.81329 20205 ft 319 kts 172°
2026-04-20 21:40 38.35971 -122.80711 19773 ft 314 kts 171°
2026-04-20 21:40 38.33877 -122.80096 19218 ft 314 kts 171°
2026-04-20 21:40 38.31781 -122.79485 18471 ft 312 kts 170°
2026-04-20 21:40 38.29682 -122.78873 17969 ft 307 kts 170°
2026-04-20 21:41 38.27632 -122.78270 17508 ft 302 kts 169°
2026-04-20 21:41 38.25558 -122.77661 16780 ft 305 kts 169°
2026-04-20 21:41 38.23606 -122.77088 16358 ft 300 kts 169°
2026-04-20 21:41 38.21621 -122.76508 15993 ft 294 kts 169°
2026-04-20 21:42 38.19837 -122.75984 15969 ft 290 kts 169°
2026-04-20 21:42 38.17971 -122.75440 15979 ft 301 kts 169°
2026-04-20 21:42 38.16022 -122.75060 15941 ft 303 kts 180°
2026-04-20 21:42 38.14087 -122.75281 15801 ft 294 kts 188°
2026-04-20 21:43 38.12174 -122.75782 14952 ft 304 kts 192°
2026-04-20 21:43 38.10303 -122.76382 14326 ft 307 kts 193°
2026-04-20 21:43 38.08502 -122.76979 13878 ft 304 kts 193°
2026-04-20 21:43 38.06715 -122.77563 13427 ft 301 kts 193°
2026-04-20 21:44 38.04915 -122.78149 12930 ft 300 kts 193°
2026-04-20 21:44 38.03110 -122.78947 12412 ft 302 kts 206°
2026-04-20 21:44 38.01554 -122.80577 11864 ft 309 kts 227°
2026-04-20 21:44 38.00514 -122.82777 11396 ft 312 kts 239°
2026-04-20 21:45 37.99714 -122.85101 10966 ft 310 kts 242°
2026-04-20 21:45 37.98975 -122.87454 10702 ft 301 kts 243°
2026-04-20 21:45 37.98164 -122.89645 10579 ft 281 kts 230°
2026-04-20 21:45 37.96830 -122.91242 10451 ft 259 kts 206°
2026-04-20 21:46 37.95150 -122.91859 10036 ft 255 kts 181°
2026-04-20 21:46 37.93414 -122.91488 9609 ft 256 kts 166°
2026-04-20 21:46 37.91733 -122.90755 9148 ft 257 kts 163°
2026-04-20 21:46 37.90072 -122.89966 8751 ft 254 kts 163°
2026-04-20 21:47 37.88434 -122.89181 8330 ft 254 kts 162°
2026-04-20 21:47 37.86807 -122.88408 8001 ft 250 kts 163°
2026-04-20 21:47 37.85192 -122.87641 7958 ft 245 kts 163°
2026-04-20 21:47 37.83573 -122.86876 7955 ft 251 kts 163°
2026-04-20 21:48 37.81974 -122.86010 7940 ft 255 kts 151°
2026-04-20 21:48 37.80776 -122.84345 7831 ft 259 kts 123°
2026-04-20 21:48 37.80143 -122.82206 7351 ft 267 kts 114°
2026-04-20 21:48 37.79583 -122.79965 6739 ft 269 kts 115°
2026-04-20 21:49 37.78919 -122.77784 6188 ft 265 kts 120°
2026-04-20 21:49 37.78202 -122.75680 5777 ft 257 kts 120°
2026-04-20 21:49 37.77519 -122.73673 5478 ft 246 kts 121°
2026-04-20 21:49 37.76840 -122.71755 5189 ft 236 kts 120°
2026-04-20 21:50 37.76189 -122.69920 4976 ft 221 kts 120°
2026-04-20 21:50 37.75596 -122.68205 4757 ft 209 kts 121°
2026-04-20 21:50 37.75021 -122.66566 4520 ft 199 kts 121°
2026-04-20 21:50 37.74483 -122.65015 4305 ft 190 kts 120°
2026-04-20 21:51 37.73969 -122.63521 4169 ft 179 kts 120°
2026-04-20 21:51 37.73470 -122.62087 3913 ft 181 kts 121°
2026-04-20 21:51 37.72957 -122.60651 3640 ft 178 kts 124°
2026-04-20 21:51 37.72382 -122.59323 3464 ft 174 kts 128°
2026-04-20 21:52 37.71746 -122.58034 3273 ft 175 kts 128°
2026-04-20 21:52 37.71117 -122.56737 3090 ft 172 kts 128°
2026-04-20 21:52 37.70483 -122.55454 2882 ft 173 kts 133°
2026-04-20 21:52 37.69717 -122.54314 2636 ft 171 kts 135°
2026-04-20 21:53 37.68990 -122.53144 2418 ft 172 kts 130°
2026-04-20 21:53 37.68355 -122.51909 2203 ft 173 kts 127°
2026-04-20 21:53 37.67757 -122.50634 1978 ft 173 kts 126°
2026-04-20 21:53 37.67190 -122.49366 1769 ft 167 kts 125°
2026-04-20 21:54 37.66686 -122.48197 1563 ft 157 kts 124°
2026-04-20 21:54 37.66228 -122.47142 1332 ft 148 kts 126°
2026-04-20 21:54 37.65785 -122.46127 1231 ft 143 kts 124°
2026-04-20 21:54 37.65351 -122.45104 1037 ft 149 kts 123°
2026-04-20 21:55 37.64886 -122.43961 818 ft 147 kts 122°
2026-04-20 21:55 37.64453 -122.42924 640 ft 143 kts 122°
2026-04-20 21:55 37.64027 -122.41884 551 ft 144 kts 120°
2026-04-20 21:55 37.63612 -122.40856 339 ft 147 kts 121°
2026-04-20 21:56 37.63165 -122.39883 190 ft 143 kts 127°
2026-04-20 21:56 37.62700 -122.38905 33 ft 139 kts 120°
2026-04-20 21:56 37.62322 -122.38038 29 ft 85 kts 117°
2026-04-20 21:56 37.62149 -122.37612 25 ft 33 kts 117°
2026-04-20 21:57 37.62047 -122.37372 17 ft 29 kts 117°
2026-04-20 21:57 37.61956 -122.37156 16 ft 21 kts 117°
2026-04-20 21:57 37.61870 -122.37092 14 ft 13 kts 192°
2026-04-20 21:57 37.61798 -122.37140 15 ft 12 kts 209°
2026-04-20 21:58 37.61738 -122.37182 16 ft 11 kts 208°
2026-04-20 21:58 37.61679 -122.37221 16 ft 10 kts 207°
2026-04-20 21:58 37.61631 -122.37268 16 ft 9 kts 248°
2026-04-20 21:58 37.61631 -122.37292 16 ft 0 kts 280°
2026-04-20 22:00 37.61635 -122.37309 16 ft 5 kts 292°
2026-04-20 22:00 37.61663 -122.37380 17 ft 14 kts 296°
2026-04-20 22:00 37.61705 -122.37483 19 ft 12 kts 297°
2026-04-20 22:01 37.61740 -122.37569 22 ft 11 kts 294°
2026-04-20 22:01 37.61768 -122.37654 25 ft 10 kts 288°
2026-04-20 22:01 37.61792 -122.37746 27 ft 11 kts 287°
2026-04-20 22:01 37.61811 -122.37819 29 ft 8 kts 291°
2026-04-20 22:02 37.61833 -122.37882 30 ft 11 kts 296°
2026-04-20 22:02 37.61861 -122.37959 31 ft 8 kts 278°
2026-04-20 22:02 37.61830 -122.37985 32 ft 7 kts 167°
2026-04-20 22:02 37.61787 -122.37967 31 ft 7 kts 161°
2026-04-20 22:03 37.61740 -122.37951 31 ft 8 kts 171°
2026-04-20 22:03 37.61690 -122.37959 31 ft 7 kts 205°
2026-04-20 22:03 37.61655 -122.37996 32 ft 6 kts 230°
2026-04-20 22:03 37.61631 -122.38033 32 ft 5 kts 231°
2026-04-20 22:04 37.61611 -122.38067 32 ft 4 kts 239°
2026-04-20 22:04 37.61607 -122.38099 32 ft 3 kts 285°
2026-04-20 22:04 37.61625 -122.38121 32 ft 4 kts 334°
2026-04-20 22:04 37.61647 -122.38124 32 ft 0 kts 10°
2026-04-20 22:05 37.61655 -122.38123 32 ft 1 kts 12°
2026-04-20 22:05 37.61657 -122.38122 32 ft 0 kts 12°